This is the latest recevied weather packets stored in our database for station/object VK4AB-13. If no packets are shown the sender has not sent any weather packets the latest 10 day(s).
| Time | Temp. | Humidity | Pressure | Rain* | Wind** | Luminosity | Snow |
|---|---|---|---|---|---|---|---|
| 1778117624 | 26.67° C | 50% | 1014.8 hPa | 0 mm | - | 838 W/m² | - |
| 1778117324 | 26.11° C | 52% | 1014.7 hPa | 0 mm | - | 902 W/m² | - |
| 1778117023 | 26.11° C | 55% | 1014.8 hPa | 0 mm | - | 325 W/m² | - |
| 1778116723 | 26.11° C | 54% | 1014.8 hPa | 0 mm | - | 325 W/m² | - |
| 1778116424 | 26.11° C | 56% | 1014.9 hPa | 0 mm | - | 770 W/m² | - |
| 1778116124 | 25.56° C | 58% | 1015.2 hPa | 0 mm | - | 752 W/m² | - |
| 1778115824 | 25.56° C | 60% | 1015.2 hPa | 0 mm | - | 580 W/m² | - |
| 1778115524 | 25° C | 60% | 1015.2 hPa | 0 mm | - | 636 W/m² | - |
| 1778115224 | 25° C | 59% | 1015.3 hPa | 0 mm | - | 192 W/m² | - |
| 1778114924 | 25.56° C | 60% | 1015.3 hPa | 0 mm | - | 176 W/m² | - |
| 1778114624 | 25.56° C | 61% | 1015.4 hPa | 0 mm | - | 703 W/m² | - |
| 1778114324 | 25.56° C | 61% | 1015.5 hPa | 0 mm | - | 671 W/m² | - |
| 1778114024 | 25.56° C | 62% | 1015.6 hPa | 0 mm | - | 696 W/m² | - |
| 1778113724 | 25° C | 65% | 1015.7 hPa | 0 mm | - | 396 W/m² | - |
| 1778113424 | 25° C | 66% | 1015.7 hPa | 0 mm | - | 557 W/m² | - |
| 1778113124 | 24.44° C | 67% | 1015.7 hPa | 0 mm | - | 691 W/m² | - |
| 1778112824 | 24.44° C | 69% | 1015.7 hPa | 0 mm | - | 564 W/m² | - |
| 1778112524 | 23.89° C | 71% | 1015.9 hPa | 0 mm | - | 635 W/m² | - |
| 1778112224 | 23.89° C | 72% | 1016 hPa | 0 mm | - | 603 W/m² | - |
| 1778111924 | 23.33° C | 73% | 1016.1 hPa | 0 mm | - | 234 W/m² | - |
| 1778111624 | 23.33° C | 74% | 1016.1 hPa | 0 mm | - | 297 W/m² | - |
| 1778111324 | 23.33° C | 74% | 1016.2 hPa | 0 mm | - | 253 W/m² | - |
| 1778111024 | 23.33° C | 74% | 1016.4 hPa | 0 mm | - | 461 W/m² | - |
| 1778110724 | 23.33° C | 75% | 1016.2 hPa | 0 mm | - | 381 W/m² | - |
| 1778110424 | 23.33° C | 76% | 1016.3 hPa | 0 mm | - | 338 W/m² | - |
* Rain latest hour (hover to see other rain measurements)
** Current wind speed in m/s (hover to see current wind gust speed)